Massena, NY

7:06 AM EDT on March 28, 2017 (GMT -0400)
Massena International-Richards

Weather History for KMSS - August, 2013

Change the Weather History Date:

Friday, August 2, 2013

  Actual Average Record
Temperature  
Mean Temperature 68 °F 68 °F  
Max Temperature 77 °F 79 °F 98 °F (1975)
Min Temperature 59 °F 58 °F 40 °F (1956)
Degree Days  
Heating Degree Days 0 1  
Month to date heating degree days 2  
Since 1 June heating degree days 121  
Since 1 July heating degree days 25  
Cooling Degree Days 3 4  
Month to date cooling degree days 8 8  
Year to date cooling degree days 303 242  
Since 1 June cooling degree days 280 228  
Growing Degree Days 17 (Base 50)    
Moisture  
Dew Point 59 °F    
Average Humidity 77    
Maximum Humidity 100    
Minimum Humidity 54    
Precipitation  
Precipitation 0.01 in 0.12 in 0.80 in (1950)
Month to date precipitation 0.56 0.24  
Year to date precipitation 20.07 19.26  
Sea Level Pressure  
Sea Level Pressure 29.80 in    
Wind  
Wind Speed 9 mph (SW)    
Max Wind Speed 17 mph    
Max Gust Speed 25 mph    
Visibility 7 miles    
Events Fog , Rain , Thunderstorm    
T = Trace of Precipitation, MM = Missing Value Source: NWS Daily Summary

Daily Weather History Graph

Daily Weather History Graph

Search for Another Location

Airport or City:

Trip Planner

Search our weather history database for the weather conditions in past years. The results will help you decide how hot, cold, wet, or windy it might be!

Date:

Astronomy

Aug. 02, 2013 Rise Set
Actual Time 5:46 AM EDT 8:24 PM EDT
Civil Twilight 5:12 AM EDT 8:57 PM EDT
Nautical Twilight 4:30 AM EDT 9:39 PM EDT
Astronomical Twilight 3:41 AM EDT 10:27 PM EDT
Moon 2:03 AM EDT (8/2) 5:21 PM EDT (8/2)
Length of Visible Light 15h 44m
Length of Day
14h 37m
Waning Crescent, 16% of the Moon is Illuminated
Aug 2
Waning Crescent
Aug 6
New
Aug 14
First Quarter
Aug 20
Full
Aug 28
Last Quarter

Hourly Weather History & Observations

Time (EDT) Temp. Dew Point Humidity Pressure Visibility Wind Dir Wind Speed Gust Speed Precip Events Conditions
12:06 AM 62.6 °F 60.8 °F 94% 29.80 in 1.0 mi Calm Calm - N/A   Clear
12:10 AM 60.8 °F 60.8 °F 100% 29.80 in 2.5 mi Calm Calm - N/A   Clear
12:17 AM 60.8 °F 59.0 °F 94% 29.80 in 6.0 mi Calm Calm - N/A   Clear
12:53 AM 61.0 °F 60.1 °F 97% 29.79 in 7.0 mi Calm Calm - N/A   Clear
1:01 AM 60.8 °F 60.8 °F 100% 29.79 in 1.8 mi Calm Calm - N/A   Clear
1:05 AM 60.8 °F 60.8 °F 100% 29.79 in 0.8 mi Calm Calm - N/A   Clear
1:14 AM 60.8 °F 59.0 °F 94% 29.79 in 0.5 mi South 3.5 mph - N/A Fog Fog
1:24 AM 60.8 °F 59.0 °F 94% 29.79 in 1.5 mi South 4.6 mph - N/A   Partly Cloudy
1:26 AM 60.8 °F 59.0 °F 94% 29.79 in 4.0 mi South 4.6 mph - N/A   Partly Cloudy
1:53 AM 62.1 °F 61.0 °F 96% 29.79 in 10.0 mi SSW 4.6 mph - N/A   Scattered Clouds
2:41 AM 60.8 °F 59.0 °F 94% 29.78 in 1.2 mi Calm Calm - 0.01 in   Partly Cloudy
2:43 AM 60.8 °F 59.0 °F 94% 29.78 in 0.8 mi Calm Calm - 0.01 in   Mist
2:53 AM 60.1 °F 59.0 °F 96% 29.78 in 0.8 mi Calm Calm - 0.01 in   Mostly Cloudy
2:57 AM 60.8 °F 60.8 °F 100% 29.78 in 1.8 mi Calm Calm - N/A   Mostly Cloudy
2:59 AM 60.8 °F 60.8 °F 100% 29.78 in 4.0 mi Calm Calm - N/A   Mostly Cloudy
3:27 AM 59.0 °F 57.2 °F 94% 29.78 in 5.0 mi Calm Calm - N/A   Scattered Clouds
3:30 AM 60.8 °F 57.2 °F 88% 29.78 in 1.5 mi Calm Calm - N/A   Scattered Clouds
3:34 AM 60.8 °F 59.0 °F 94% 29.78 in 0.8 mi SSW 3.5 mph - N/A   Scattered Clouds
3:43 AM 60.8 °F 59.0 °F 94% 29.78 in 1.5 mi SSW 3.5 mph - N/A   Partly Cloudy
3:50 AM 60.8 °F 59.0 °F 94% 29.78 in 3.0 mi SSW 3.5 mph - N/A   Partly Cloudy
3:53 AM 60.1 °F 60.1 °F 100% 29.78 in 5.0 mi SSW 4.6 mph - N/A   Scattered Clouds
4:53 AM 61.0 °F 60.1 °F 97% 29.79 in 10.0 mi SW 6.9 mph - N/A   Scattered Clouds
5:23 AM 60.8 °F 60.8 °F 100% 29.80 in 9.0 mi SW 8.1 mph - N/A   Partly Cloudy
5:53 AM 61.0 °F 59.0 °F 93% 29.81 in 9.0 mi SW 5.8 mph - N/A   Partly Cloudy
6:53 AM 61.0 °F 60.1 °F 97% 29.82 in 10.0 mi SW 6.9 mph - N/A   Clear
7:53 AM 64.0 °F 61.0 °F 90% 29.83 in 10.0 mi SW 9.2 mph - N/A   Clear
8:53 AM 64.9 °F 60.1 °F 84% 29.83 in 10.0 mi SW 10.4 mph - N/A   Scattered Clouds
9:11 AM 66.2 °F 60.8 °F 83% 29.83 in 10.0 mi SW 11.5 mph - N/A   Mostly Cloudy
9:53 AM 68.0 °F 60.1 °F 76% 29.83 in 10.0 mi WSW 8.1 mph - N/A   Partly Cloudy
10:53 AM 69.1 °F 60.1 °F 73% 29.83 in 10.0 mi SW 12.7 mph - N/A   Partly Cloudy
11:53 AM 73.9 °F 60.1 °F 62% 29.83 in 10.0 mi WSW 10.4 mph - N/A   Scattered Clouds
12:53 PM 75.0 °F 59.0 °F 57% 29.81 in 10.0 mi SW 15.0 mph 21.9 mph N/A   Scattered Clouds
1:53 PM 73.9 °F 57.9 °F 57% 29.80 in 10.0 mi SW 11.5 mph - N/A   Mostly Cloudy
2:53 PM 75.9 °F 57.0 °F 52% 29.79 in 10.0 mi WSW 9.2 mph 19.6 mph N/A   Partly Cloudy
3:53 PM 72.0 °F 57.9 °F 61% 29.80 in 10.0 mi SW 12.7 mph - 0.00 in   Clear
4:02 PM 71.6 °F 60.8 °F 69% 29.80 in 10.0 mi WSW 8.1 mph - N/A Thunderstorm Partly Cloudy
4:24 PM 69.8 °F 57.2 °F 64% 29.80 in 10.0 mi WSW 13.8 mph 20.7 mph N/A   Partly Cloudy
4:53 PM 73.9 °F 57.9 °F 57% 29.79 in 10.0 mi WSW 15.0 mph 25.3 mph N/A   Partly Cloudy
5:53 PM 73.0 °F 57.9 °F 59% 29.78 in 10.0 mi WSW 11.5 mph 23.0 mph N/A   Clear
6:53 PM 73.0 °F 57.9 °F 59% 29.79 in 10.0 mi WSW 8.1 mph - N/A   Clear
7:53 PM 70.0 °F 57.9 °F 65% 29.78 in 10.0 mi SW 8.1 mph - N/A   Clear
8:53 PM 66.0 °F 59.0 °F 78% 29.79 in 10.0 mi SSW 6.9 mph - N/A   Clear
9:53 PM 66.0 °F 57.9 °F 75% 29.80 in 10.0 mi SW 10.4 mph - N/A   Scattered Clouds
10:53 PM 66.0 °F 59.0 °F 78% 29.80 in 10.0 mi SW 6.9 mph - N/A   Mostly Cloudy
11:53 PM 64.9 °F 60.1 °F 84% 29.80 in 10.0 mi SSW 9.2 mph - 0.00 in Rain Light Rain